Regional Weather Roundup
Issued by NWS

Home | Current Version | Previous Version | Graphics & Text | Print | Product List | Glossary On
Versions: 1 2 3 4 5 6 7 8 9 10 11 12 13 14 15 16 17 18 19 20 21 22 23 24 25 26 27 28 29 30 31 32 33 34 35 36 37 38 39 40 41 42 43 44 45 46 47 48 49 50
354
ASUS45 KABQ 240401
RWRNM
NEW MEXICO REGIONAL WEATHER ROUNDUP
NATIONAL WEATHER SERVICE ALBUQUERQUE NM
1000 PM MDT SUN JUL 23 2017

NOTE: "FAIR" MEANS FEW OR NO CLOUDS BELOW 12,000 FEET AGL WITH NO
       SIGNIFICANT WEATHER OR OBSTRUCTIONS TO VISION.

      THIS PRODUCT IS RELEASED AS TWO VERSIONS.  ONE VERSION NEAR
      THE TOP OF THE HOUR CONTAINING PRELIMINARY DATA FROM ALBUQUERQUE
      AND OTHER STATIONS.  A FINAL VERSION WITH ADDITIONAL DATA IS
      ISSUED ABOUT 10 MINUTES AFTER THE HOUR.

NMZ501-503-504-510>518-240500-
NORTHWEST PLATEAU/NORTHCENTRAL MOUNTAINS

CITY           SKY/WX    TMP DP  RH WIND       PRES   REMARKS
FARMINGTON     CLOUDY    78  48  34 CALM      30.13R
LOS ALAMOS     MOCLDY    70  47  43 SW7       30.33R
SANTA FE       MOCLDY    70  55  59 S8        30.26R
TAOS           FAIR      66  45  45 SE16      30.34R
ANGEL FIRE     FAIR      57  50  79 CALM      30.45S

$$
NMZ402-403-502-505>509-240500-
WESTCENTRAL MOUNTAINS/SOUTHWEST MOUNTAINS

CITY           SKY/WX    TMP DP  RH WIND       PRES   REMARKS
GALLUP         MOCLDY    71  54  54 SW9       30.21R
GRANTS         FAIR      73  50  44 SE17G25   30.26R
SILVER CITY    FAIR      72  61  69 W6        30.17R

$$
NMZ407-409-411-412-240500-
SOUTHERN DESERTS

CITY           SKY/WX    TMP DP  RH WIND       PRES   REMARKS
DEMING         FAIR      70  66  87 W3        30.10R
LAS CRUCES     LGT RAIN  76  65  68 SE5       30.12R
HOLLOMAN AFB   CLOUDY    76  62  59 E6        30.12R
ALAMOGORDO     CLOUDY    75  61  60 SE8       30.12R
T OR C         MOCLDY    79  56  45 S3        30.12R

$$
NMZ519>523-240500-
CENTRAL VALLEYS/CENTRAL HIGHLANDS

CITY           SKY/WX    TMP DP  RH WIND       PRES   REMARKS
ALBUQUERQUE    MOCLDY    76  57  51 SE16      30.19R
DOUBLE EAGLE   CLEAR     75  55  50 SE13      30.22R
CLINES CORNERS CLOUDY    65  53  65 E8        30.33R
BELEN          NOT AVBL
SOCORRO        LGT RAIN  71  61  71 N12G17    30.17R

$$
NMZ524>526-539-540-240500-
SOUTHCENTRAL MOUNTAINS

CITY           SKY/WX    TMP DP  RH WIND       PRES   REMARKS
RUIDOSO        LGT RAIN  63  57  82 S9        30.34R

$$
NMZ527>531-240500-
NORTHEAST HIGHLANDS/NORTHEAST PLAINS

CITY           SKY/WX    TMP DP  RH WIND       PRES   REMARKS
LAS VEGAS      FAIR      60  55  83 N6        30.33R
RATON          FAIR      62  59  90 E5        30.28R
CLAYTON        FAIR      73  61  65 NE10      30.17R

$$
NMZ532>537-240500-
EASTCENTRAL PLAINS

CITY           SKY/WX    TMP DP  RH WIND       PRES   REMARKS
SANTA ROSA     FAIR      73  58  59 N7        30.15R
TUCUMCARI      FAIR      72  68  87 SW7       30.08R
CANNON AFB     FAIR      71  69  93 N7        30.12R
CLOVIS AIRPORT FAIR      71  65  81 N6        30.12R

$$
NMZ028-029-538-240500-
SOUTHEAST PLAINS

CITY           SKY/WX    TMP DP  RH WIND       PRES   REMARKS
ROSWELL        FAIR      79  60  52 S6        30.06R
ARTESIA        FAIR      81  64  57 S10       30.05R
CARLSBAD       FAIR      76  68  76 SW6       30.02R
HOBBS          FAIR      77  64  65 CALM      30.08R


$$




USA.gov is the U.S. government's official web portal to all federal, state and local government web resources and services.